Terminal Aerodrome Forecast
Issued by NWS

Home | Current Version | Previous Version | Text Only | Print | Product List | Glossary On
Versions: 1 2 3 4 5 6 7 8 9 10 11 12 13 14 15 16 17 18 19 20 21 22 23 24 25 26 27 28 29 30 31 32 33 34 35 36 37 38 39 40 41 42 43 44 45 46 47 48 49 50
000
FTAK31 PANC 070304 AAA
TAFASN
TAF AMD
PASN 070304Z 0703/0724 15018KT 6SM BR SCT004 OVC070
      TEMPO 0703/0706 3SM BR OVC004
     FM070600 19011KT 3SM -SHRA BR OVC008
     FM071200 17015KT 1SM BR OVC004=

USA.gov is the U.S. government's official web portal to all federal, state and local government web resources and services.